Back to catalog

FENGYUN 1C DEB

AlivePO
NORAD 30533·DEBRIS·🇨🇳 China

Launched May 10, 1999 from Taiyuan Satellite Launch Center

Loading…

Next Passes (next 24 hours)

TLE

FreshSource: Space-Track

Epoch: Sep 14, 2026, 09:25 UTC

1 30533U 99025AJX 26257.39303179  .00006164  00000-0  12489-2 0  9999
2 30533  98.8465  48.0696 0072634  28.3477 354.0639 14.59980147 18256

Track FENGYUN 1C DEB in real time with AllMySat

Download on the App Store